Flag for Canada Weather past 2 weeks in Kugluktuk, Nunavut Territory, Canada

Now
45 °F

Passing clouds.


Feels Like: 40 °F
Forecast: 38 / 55 °F
Wind: 8 mph from East

Location: Coppermine

Current Time: Aug 28, 2014 at 11:17:00 PM

Latest Report: Aug 28, 2014 at 10:00 PM


Visibility: 15 mi

Pressure: 29.82 "Hg

Humidity: 76%

Dew point: 37 °F

Location of KugluktukLocation

Historic Weather in Kugluktuk — Graph

°F

Kugluktuk temperature yesterday

Maximum temperature yesterday: 48 °F (at 3:00 PM)
Minimum temperature yesterday: 41 °F (at 11:00 PM)
Average temperature yesterday: 45 °F

Past Weeks' High & Low Weather Summary

 TemperatureHumidityPressure
High64 °F (Aug 23, 6:00 PM)100% (Aug 25, 3:00 AM)30.36 "Hg (Aug 25, 3:00 AM)
Low32 °F (Aug 19, 5:00 AM)38% (Aug 21, 2:00 PM)29.54 "Hg (Aug 25, 11:00 PM)
Average46 °F75%29.96 "Hg
* Reported Aug 13 10:00 PM — Aug 28 10:00 PM, Kugluktuk, Weather by CustomWeather, © 2014

Note: Actual official high and low records may vary slightly from our data, if they occured in-between our weather recording intervals... More about our weather records

Advertising

Kugluktuk weather history for previous 24 hours

 ConditionsComfort  
Time TempWeatherWind HumidityBarometerVisibility
10:00 PM
Aug 28
45 °FPassing clouds.8 mph76%29.82 "Hg15 mi
9:00 PM48 °FPassing clouds.10 mph71%29.83 "Hg15 mi
8:00 PM46 °FPartly sunny.9 mph66%29.89 "Hg15 mi
7:00 PM52 °FPartly sunny.12 mph67%29.84 "Hg15 mi
6:00 PM52 °FPartly sunny.12 mph62%29.85 "Hg15 mi
5:00 PM52 °FPartly sunny.12 mph67%29.86 "Hg15 mi
4:00 PM54 °FPassing clouds.12 mph58%29.86 "Hg15 mi
3:00 PM54 °FPassing clouds.7 mph58%29.88 "Hg15 mi
2:00 PM54 °FScattered clouds.No wind54%29.89 "Hg15 mi
1:00 PM52 °FPartly sunny.6 mph58%29.90 "Hg15 mi
12:00 PM50 °FScattered clouds.3 mph62%29.91 "Hg15 mi
11:00 AM48 °FPassing clouds.5 mph62%29.92 "Hg15 mi
10:00 AM43 °FPassing clouds.6 mph81%29.93 "Hg15 mi
9:00 AM39 °FScattered clouds.8 mph87%29.93 "Hg15 mi
8:00 AM36 °FPassing clouds.9 mph87%29.93 "Hg15 mi
7:00 AM32 °FPassing clouds.9 mph93%29.93 "Hg15 mi
6:00 AM32 °FPassing clouds.7 mph93%29.93 "Hg15 mi
5:00 AM32 °FPassing clouds.6 mph93%29.93 "Hg15 mi
4:00 AM32 °FPassing clouds.3 mph93%29.92 "Hg15 mi
3:00 AM34 °FPassing clouds.5 mph93%29.92 "Hg15 mi
2:00 AM36 °FClear.6 mph93%29.91 "Hg15 mi
1:00 AM36 °FPassing clouds.6 mph87%29.91 "Hg15 mi
12:00 AM39 °FPassing clouds.5 mph87%29.91 "Hg15 mi
11:00 PM
Aug 27
41 °FPassing clouds.No wind81%29.91 "Hg15 mi
Weather by CustomWeather, © 2014

See weather overviewHow to use our weather pages